When you browse on this site, cookies collect data to enhance your experience and personalize the content and advertising you see.
Visit our Privacy Policy to learn more. By continuing to use the site, you agree to this use of cookies and data.
  • In Hungary
  • List of Countries
  • For 7 days
  • Water Temperature
  • Satellite Maps
  • Weather Map
  • News
  • Weather Widgets
  • user-avatar
    Login

    Hourly Weather Lasek

    Today, 18 January, Friday

    Time Temperature Precipitation Wind Pressure Humidity
    00:00 0°C° 0.1 mm 5 mps 740 mmHg 90%
    01:00 +1°C° 0 mm 4 mps 740 mmHg 90%
    02:00 +1°C° 0 mm 5 mps 740 mmHg 89%
    03:00 +1°C° 0 mm 5 mps 740 mmHg 88%
    04:00 +1°C° 0 mm 6 mps 740 mmHg 87%
    05:00 -1°C° 0 mm 6 mps 740 mmHg 86%
    06:00 -1°C° 0 mm 6 mps 741 mmHg 85%
    07:00 -2°C° 0 mm 6 mps 741 mmHg 84%
    08:00 -2°C° 0 mm 6 mps 742 mmHg 82%
    09:00 -2°C° 0 mm 7 mps 743 mmHg 81%
    10:00 -2°C° 0 mm 7 mps 744 mmHg 80%
    11:00 -2°C° 0.1 mm 7 mps 744 mmHg 78%
    12:00 -2°C° 0.1 mm 6 mps 745 mmHg 76%
    13:00 -1°C° 0 mm 5 mps 746 mmHg 73%
    14:00 -2°C° 0 mm 5 mps 747 mmHg 74%
    15:00 -2°C° 0 mm 5 mps 748 mmHg 75%
    16:00 -3°C° 0 mm 4 mps 749 mmHg 75%
    17:00 -3°C° 0 mm 4 mps 749 mmHg 76%
    18:00 -4°C° 0 mm 4 mps 750 mmHg 76%
    19:00 -4°C° 0 mm 3 mps 750 mmHg 77%
    20:00 -4°C° 0 mm 4 mps 751 mmHg 77%
    21:00 -4°C° 0 mm 4 mps 751 mmHg 78%
    22:00 -4°C° 0 mm 4 mps 752 mmHg 79%
    23:00 -4°C° 0 mm 4 mps 752 mmHg 80%

    Tomorrow, 19 January, Saturday

    Time Temperature Precipitation Wind Pressure Humidity
    00:00 -4°C° 0 mm 4 mps 753 mmHg 82%
    01:00 -4°C° 0 mm 3 mps 753 mmHg 84%
    02:00 -4°C° 0 mm 3 mps 753 mmHg 84%
    03:00 -4°C° 0 mm 3 mps 753 mmHg 84%
    04:00 -4°C° 0 mm 3 mps 753 mmHg 84%
    05:00 -4°C° 0 mm 3 mps 753 mmHg 85%
    06:00 -5°C° 0 mm 3 mps 753 mmHg 85%
    07:00 -5°C° 0 mm 3 mps 754 mmHg 85%
    08:00 -4°C° 0 mm 3 mps 754 mmHg 84%
    09:00 -4°C° 0 mm 3 mps 754 mmHg 83%
    10:00 -2°C° 0 mm 3 mps 754 mmHg 82%
    11:00 -2°C° 0 mm 3 mps 754 mmHg 80%
    12:00 -1°C° 0 mm 3 mps 754 mmHg 78%
    13:00 -1°C° 0 mm 3 mps 754 mmHg 76%
    14:00 -1°C° 0 mm 2 mps 754 mmHg 78%
    15:00 -2°C° 0 mm 2 mps 754 mmHg 81%
    16:00 0°C° 0 mm 1 mps 754 mmHg 84%
    17:00 -3°C° 0 mm 2 mps 754 mmHg 85%
    18:00 -3°C° 0 mm 2 mps 754 mmHg 85%
    19:00 -3°C° 0 mm 2 mps 754 mmHg 86%
    20:00 -3°C° 0 mm 2 mps 754 mmHg 87%
    21:00 -3°C° 0 mm 2 mps 754 mmHg 87%
    22:00 -3°C° 0 mm 2 mps 754 mmHg 88%
    23:00 -4°C° 0 mm 2 mps 754 mmHg 88%

    Day after tomorrow, 20 January, Sunday

    Time Temperature Precipitation Wind Pressure Humidity
    00:00 -4°C° 0 mm 2 mps 754 mmHg 89%
    01:00 -4°C° 0 mm 2 mps 754 mmHg 89%
    02:00 -4°C° 0 mm 2 mps 753 mmHg 89%
    03:00 -2°C° 0 mm 1 mps 753 mmHg 89%
    04:00 -2°C° 0 mm 1 mps 753 mmHg 89%
    05:00 -2°C° 0 mm 1 mps 753 mmHg 89%
    06:00 -3°C° 0 mm 1 mps 752 mmHg 89%
    07:00 -3°C° 0 mm 1 mps 752 mmHg 88%
    08:00 -2°C° 0 mm 1 mps 753 mmHg 85%
    09:00 -2°C° 0 mm 1 mps 753 mmHg 82%
    10:00 -1°C° 0 mm 1 mps 753 mmHg 78%
    11:00 -1°C° 0 mm 1 mps 753 mmHg 75%
    12:00 0°C° 0 mm 1 mps 752 mmHg 71%
    13:00 0°C° 0 mm 1 mps 752 mmHg 68%
    14:00 0°C° 0 mm 1 mps 752 mmHg 71%
    15:00 -1°C° 0 mm 1 mps 752 mmHg 73%
    16:00 -1°C° 0 mm 1 mps 752 mmHg 76%
    17:00 -1°C° 0 mm 1 mps 752 mmHg 77%
    18:00 -2°C° 0 mm 1 mps 752 mmHg 77%
    19:00 -4°C° 0 mm 2 mps 753 mmHg 78%
    20:00 -4°C° 0 mm 2 mps 753 mmHg 79%
    21:00 -4°C° 0 mm 2 mps 753 mmHg 80%
    22:00 -4°C° 0 mm 2 mps 753 mmHg 80%
    23:00 -4°C° 0 mm 2 mps 754 mmHg 83%

    21 January, Monday

    Time Temperature Precipitation Wind Pressure Humidity
    00:00 -4°C° 0 mm 2 mps 754 mmHg 85%
    01:00 -4°C° 0 mm 2 mps 754 mmHg 87%
    02:00 -4°C° 0 mm 2 mps 754 mmHg 89%
    03:00 -4°C° 0 mm 2 mps 755 mmHg 91%
    04:00 -2°C° 0 mm 1 mps 755 mmHg 92%
    05:00 -2°C° 0 mm 1 mps 755 mmHg 93%
    06:00 -2°C° 0 mm 1 mps 755 mmHg 93%
    07:00 -1°C° 0 mm 1 mps 755 mmHg 93%
    08:00 -1°C° 0 mm 1 mps 756 mmHg 91%
    09:00 -3°C° 0 mm 2 mps 756 mmHg 89%
    10:00 -2°C° 0 mm 2 mps 756 mmHg 87%
    11:00 -2°C° 0 mm 2 mps 756 mmHg 84%
    12:00 -1°C° 0 mm 3 mps 756 mmHg 81%
    13:00 -1°C° 0 mm 3 mps 755 mmHg 79%
    14:00 -2°C° 0 mm 3 mps 755 mmHg 81%
    15:00 -2°C° 0 mm 3 mps 755 mmHg 83%
    16:00 -3°C° 0 mm 2 mps 755 mmHg 85%
    17:00 -3°C° 0 mm 2 mps 755 mmHg 85%
    18:00 -3°C° 0 mm 2 mps 755 mmHg 86%
    19:00 -4°C° 0 mm 3 mps 755 mmHg 87%
    20:00 -4°C° 0 mm 3 mps 754 mmHg 88%
    21:00 -4°C° 0 mm 3 mps 754 mmHg 88%
    22:00 -5°C° 0 mm 3 mps 754 mmHg 88%
    23:00 -5°C° 0 mm 3 mps 754 mmHg 87%

    22 January, Tuesday

    Time Temperature Precipitation Wind Pressure Humidity
    00:00 -5°C° 0 mm 3 mps 754 mmHg 86%
    01:00 -5°C° 0 mm 3 mps 753 mmHg 86%
    02:00 -5°C° 0 mm 3 mps 753 mmHg 86%
    03:00 -5°C° 0 mm 3 mps 752 mmHg 86%
    04:00 -5°C° 0 mm 3 mps 752 mmHg 86%
    05:00 -5°C° 0 mm 3 mps 752 mmHg 86%
    06:00 -5°C° 0 mm 3 mps 751 mmHg 85%
    07:00 -6°C° 0 mm 3 mps 751 mmHg 85%
    08:00 -5°C° 0 mm 3 mps 751 mmHg 82%
    09:00 -5°C° 0 mm 3 mps 751 mmHg 79%
    10:00 -4°C° 0 mm 3 mps 750 mmHg 75%
    11:00 -4°C° 0 mm 3 mps 750 mmHg 72%
    12:00 -2°C° 0 mm 3 mps 749 mmHg 69%
    13:00 -2°C° 0 mm 2 mps 749 mmHg 66%
    14:00 -2°C° 0 mm 2 mps 748 mmHg 69%
    15:00 -3°C° 0 mm 2 mps 748 mmHg 72%
    16:00 -3°C° 0 mm 2 mps 748 mmHg 75%
    17:00 -3°C° 0 mm 2 mps 747 mmHg 76%
    18:00 -5°C° 0 mm 3 mps 747 mmHg 77%
    19:00 -5°C° 0 mm 3 mps 747 mmHg 77%
    20:00 -5°C° 0 mm 3 mps 746 mmHg 78%
    21:00 -5°C° 0 mm 3 mps 746 mmHg 78%
    22:00 -5°C° 0 mm 3 mps 746 mmHg 78%
    23:00 -5°C° 0 mm 3 mps 745 mmHg 82%

    23 January, Wednesday

    Time Temperature Precipitation Wind Pressure Humidity
    00:00 -6°C° 0 mm 3 mps 745 mmHg 85%
    01:00 -6°C° 0 mm 3 mps 744 mmHg 88%
    02:00 -7°C° 0 mm 4 mps 744 mmHg 87%
    03:00 -7°C° 0 mm 4 mps 743 mmHg 86%
    04:00 -7°C° 0 mm 5 mps 743 mmHg 86%
    05:00 -7°C° 0 mm 5 mps 742 mmHg 85%
    06:00 -8°C° 0 mm 5 mps 742 mmHg 85%
    07:00 -8°C° 0 mm 5 mps 742 mmHg 84%
    08:00 -9°C° 0 mm 6 mps 742 mmHg 83%
    09:00 -8°C° 0 mm 6 mps 742 mmHg 81%
    10:00 -8°C° 0 mm 6 mps 742 mmHg 80%
    11:00 -8°C° 0 mm 6 mps 741 mmHg 79%
    12:00 -6°C° 0 mm 6 mps 741 mmHg 77%
    13:00 -6°C° 0 mm 6 mps 740 mmHg 76%
    14:00 -6°C° 0.1 mm 6 mps 740 mmHg 79%
    15:00 -5°C° 0.1 mm 6 mps 740 mmHg 82%
    16:00 -5°C° 0.1 mm 5 mps 739 mmHg 84%
    17:00 -5°C° 0.1 mm 5 mps 739 mmHg 85%
    18:00 -5°C° 0.1 mm 5 mps 739 mmHg 85%
    19:00 -5°C° 0.1 mm 5 mps 739 mmHg 86%
    20:00 -4°C° 0 mm 5 mps 739 mmHg 87%
    21:00 -4°C° 0 mm 5 mps 739 mmHg 89%
    22:00 -2°C° 0 mm 5 mps 738 mmHg 90%
    23:00 -2°C° 0.2 mm 5 mps 738 mmHg 91%
    Show more